Location: Opole
(50.6667°N, 17.9333°E)
Time: 23:41:04
(UTC+01:00)

ISS - Visible Passes

Search period start: 21 January 2018 00:00
Search period end: 31 January 2018 00:00
Orbit: 402 x 407 km, 51.6° (Epoch: 22 January)

Date Brightness Start Highest point End Pass type
(mag) Time Alt. Az. Time Alt. Az. Time Alt. Az.
26 Jan -1.5 18:55:21 10° SSW 18:56:24 17° SSW 18:56:24 17° SSW visible
27 Jan -2.1 18:03:39 10° S 18:06:03 19° SE 18:06:25 19° SE visible
27 Jan -0.5 19:38:53 10° WSW 19:39:05 11° WSW 19:39:05 11° WSW visible
28 Jan -1.4 17:12:34 10° SSE 17:13:56 12° SE 17:15:17 10° ESE visible
28 Jan -2.8 18:46:38 10° SW 18:49:02 39° SSW 18:49:02 39° SSW visible
29 Jan -2.8 17:54:33 10° SW 17:57:32 34° SSE 17:58:54 23° ESE visible
29 Jan -1.0 19:30:33 10° W 19:31:34 18° W 19:31:34 18° W visible
30 Jan -3.9 18:38:09 10° WSW 18:41:22 78° S 18:41:22 78° S visible
